Regional Weather Roundup
Issued by NWS

Home | Current Version | Previous Version | Graphics & Text | Print | Product List | Glossary On
Versions: 1 2 3 4 5 6 7 8 9 10 11 12 13 14 15 16 17 18 19 20 21 22 23 24 25 26 27 28 29 30 31 32 33 34 35 36 37 38 39 40 41 42 43 44 45 46 47 48 49 50
000
ASUS43 KMPX 270601
RWRMN
WEATHER ROUNDUP FOR MINNESOTA
NATIONAL WEATHER SERVICE TWIN CITIES/CHANHASSEN MN
100 AM CDT WED MAY 27 2015


NOTE: "FAIR" INDICATES FEW OR NO CLOUDS BELOW 12,000 FEET WITH NO
SIGNIFICANT WEATHER AND/OR OBSTRUCTIONS TO VISIBILITY. N/A MEANS
CURRENT SKY AND/OR WEATHER CONDITIONS ARE NOT AVAILABLE.

MNZ060>063-068>070-270700-
   Twin Cities Metro

CITY           SKY/WX    TMP DP  RH WIND       PRES   REMARKS
TWIN CITIES    CLOUDY    58  56  93 W6        29.82S
6HR MIN TEMP:  57; 6HR MAX TEMP:  58; 6HR PCP:  0.02;

ST PAUL        CLOUDY    57  56  96 NW3       29.82S
CRYSTAL        CLOUDY    57  55  93 W5        29.81R
BLAINE         CLOUDY    57  57 100 W5        29.82R
LAKEVILLE      CLOUDY    55  54  94 W3        29.83S
EDEN PRAIRIE   CLOUDY    56  55  97 W3        29.82S
6HR MIN TEMP:  56; 6HR MAX TEMP:  58; 6HR PCP:  0.02;

SOUTH ST PAUL  CLOUDY    57  56  95 W5        29.81S
LAKE ELMO      CLOUDY    55  55 100 CALM      29.83R FOG
$$
MNZ001>005-007-008-013>017-022>024-027-028-270700-
   Northwest Minnesota

CITY           SKY/WX    TMP DP  RH WIND       PRES   REMARKS
BEMIDJI        PTCLDY    53  49  83 CALM      29.79S
HALLOCK        PTCLDY    63  48  59 NW3       29.77S
ROSEAU         CLEAR     59  52  77 S5        29.76S
WARROAD        CLEAR     63  54  72 S6        29.76S
THIEF RVR FALL CLEAR     61  54  77 CALM      29.78S
CROOKSTON      PTCLDY    59  54  82 CALM      29.78R
FOSSTON        CLEAR     57  52  82 S6        29.79S
DETROIT LAKES  PTCLDY    61  54  77 CALM      29.82F
MOORHEAD       CLEAR     61  54  77 S5        29.80S
PARK RAPIDS    MOCLDY    61  53  75 SW3       29.80S
MAHNOMEN       FAIR      59  55  85 S9        29.79F
$$
MNZ006-009>011-018-025>026-270700-
   North Central Minnesota

CITY           SKY/WX    TMP DP  RH WIND       PRES   REMARKS
BAUDETTE       PTCLDY    60  49  66 W6        29.75S
FLAG ISLAND    CLEAR     63  48  59 W3        29.75R
INTL FALLS     PTCLDY    57  51  80 SW6       29.74F
6HR MIN TEMP:  50; 6HR MAX TEMP:  75;

WASKISH        CLEAR     61  55  82 CALM      29.77F
BIG FORK       PTCLDY    54  52  94 CALM      29.79S
LONGVILLE      MOCLDY    55  54  94 CALM      29.79F
GRAND RAPIDS   MOCLDY    54  48  82 S5        29.79F
CRANE LAKE     PTCLDY    48  48 100 CALM      29.77F
COOK           MOCLDY    55  52  88 CALM      29.79S
WALKER         FAIR      58  54  86 W3        29.79S
$$
MNZ012-019>021-037-270700-
   Northeast Minnesota

CITY           SKY/WX    TMP DP  RH WIND       PRES   REMARKS
DULUTH         CLOUDY    53  50  89 CALM      29.78F
6HR MIN TEMP:  53; 6HR MAX TEMP:  59;

HIBBING        MOCLDY    48  46  93 CALM      29.79F FOG
EVELETH        CLOUDY    52  50  93 W5        29.80F
DULUTH HARBOR  CLOUDY    54  52  94 S5        29.79F
TWO HARBORS    CLOUDY    57  52  82 CALM      29.76F
GRAND MARAIS     N/A     49  47  93 CALM      29.73F
G MARAIS ARPRT CLOUDY    54  48  82 CALM      29.77F
$$
MNZ029>031-032-039>041-046>048-054>057-064-270700-
   West Central Minnesota

CITY           SKY/WX    TMP DP  RH WIND       PRES   REMARKS
FERGUS FALLS   PTCLDY    61  55  82 SE6       29.82F
WHEATON        PTCLDY    57  50  77 S3        29.84F
MORRIS         PTCLDY    57  55  94 S5        29.83F
ALEXANDRIA     PTCLDY    57  54  89 SW8       29.84F
ELBOW LAKE     FAIR      56  53  92 S6        29.82F
WADENA         MOCLDY    55  52  88 SW5       29.81S
GLENWOOD       MOCLDY    55  55 100 SW7       29.84F
APPLETON       PTCLDY    55  52  88 CALM      29.83F
BENSON         PTCLDY    55  54  94 CALM      29.84S
ORTONVILLE     MOCLDY    57  52  82 CALM      29.84S
MADISON        PTCLDY    55  52  88 SW5       29.85S
WILLMAR        FAIR      57  55  94 CALM      29.85F
$$
MNZ033>034-036-042>043-049>051-058-059-270700-
   Central Minnesota

CITY           SKY/WX    TMP DP  RH WIND       PRES   REMARKS
ST CLOUD       CLOUDY    55  53  93 CALM      29.82S
6HR MIN TEMP:  54; 6HR MAX TEMP:  61;

SAUK CENTRE    FAIR      57  55  94 CALM      29.84S
PAYNESVILLE    MOCLDY    50  50 100 SW6       29.84S FOG
AITKIN         MOCLDY    55  48  76 CALM      29.79F
PINE RIVER     MOCLDY    55  54  94 CALM      29.84S
BRAINERD       MOCLDY    55  54  96 SW3       29.81F
STAPLES        FAIR      54  52  94 S5        29.81F
LONG PRAIRIE   FAIR      54  54 100 CALM      29.83S
LITTLE FALLS   MOCLDY    52  52 100 CALM      29.82F FOG
LITCHFIELD     MOCLDY    57  57 100 W5        29.84F
BUFFALO        CLOUDY    56  54  93 CALM      29.84S
MAPLE LAKE     CLOUDY    58  56  94 CALM      29.84S
$$
MNZ037-044-045-052-053-270700-
   East Central Minnesota

CITY           SKY/WX    TMP DP  RH WIND       PRES   REMARKS
PRINCETON      CLOUDY    55  52  88 CALM      29.83R
MORA           CLOUDY    52  50  93 CALM      29.83S
CAMBRIDGE      CLOUDY    55  48  76 CALM      29.81R HAZE
RUSH CITY      CLOUDY    53  52  96 CALM      29.82R
MOOSE LAKE     CLOUDY    50  50 100 CALM      29.78F
HINCKLEY       FAIR      54  52  94 CALM      29.81R
CLOQUET        CLOUDY    52  48  87 CALM      29.79F
MCGREGOR       CLOUDY    52  50  93 CALM      29.81S
$$
MNZ071>073-080-081-089-090-097-098-270700-
   Southwest Minnesota

CITY           SKY/WX    TMP DP  RH WIND       PRES   REMARKS
MONTEVIDEO     PTCLDY    57  57 100 CALM      29.85S
GRANITE FALLS  PTCLDY    54  53  96 S3        29.86S
CANBY          FAIR      56  52  85 W5        29.87R
MARSHALL       PTCLDY    55  48  76 SW6       29.85S
REDWOOD FALLS  MOCLDY    57  54  89 S3        29.84F
OLIVIA         MOCLDY    52  50  93 W5        29.84F
PIPESTONE      MOCLDY    54  52  94 SW3       29.89S
WINDOM         CLOUDY    55  54  94 CALM      29.88S
WORTHINGTON    CLOUDY    55  52  88 S5        29.89S
JACKSON        CLOUDY    55  54  94 W3        29.89S
TRACY          MOCLDY    58  55  92 SW7       29.87S
SLAYTON        CLOUDY    56  54  94 CALM      29.89S
$$
MNZ065>067-074>077-082>085-091>093-270700-
   South Central Minnesota

CITY           SKY/WX    TMP DP  RH WIND       PRES   REMARKS
MANKATO        CLOUDY    55  54  94 W5        29.85S
NEW ULM        CLOUDY    55  55 100 W7        29.85S
ST JAMES       CLOUDY    57  57 100 W7        29.87S
FAIRMONT       CLOUDY    57  52  82 W6        29.87S
GLENCOE        CLOUDY    58  57  97 CALM      29.83S
FARIBAULT      CLOUDY    57  55  94 W5        29.84S
OWATONNA       DRIZZLE   57  55  94 W7        29.85S
WASECA         CLOUDY    55  54  94 W5        29.86S FOG
ALBERT LEA     DRIZZLE   57  55  94 W5        29.85F
$$
MNZ078>079-086>088-094>096-270700-
   Southeast Minnesota

CITY           SKY/WX    TMP DP  RH WIND       PRES   REMARKS
ROCHESTER      CLOUDY    57  56  96 W8        29.85R
6HR MIN TEMP:  57; 6HR MAX TEMP:  60; 6HR PCP:  0.10;

RED WING       RAIN      57  55  94 NW3       29.81S
STANTON        LGT RAIN  58  55  92 W6        29.82S
DODGE CENTER   LGT RAIN  57  55  94 W7        29.84S
WINONA         CLOUDY    59  55  88 W6        29.80S
AUSTIN         CLOUDY    57  55  94 W7        29.85R
PRESTON        CLOUDY    57  55  94 W10       29.84R FOG
$$
ABBREVIATIONS USED IN REMARKS
   TC - TEMPERATURES IN CELSIUS
  WCI - WIND CHILL INDEX
   HX - HEAT INDEX
  VSB - VISIBILITY
$$



USA.gov is the U.S. government's official web portal to all federal, state and local government web resources and services.